Location: Cormont
(50.5693°N, 1.7416°E)
Time: 17:14:24
(UTC+00:00)

Cosmos 1726 Rocket - Pass Details

Date: 21 October 2019
Orbit: 602 x 630 km, 82.5° (Epoch: 21 November)

Event Time Altitude Azimuth Distance (km) Brightness Sun altitude
Rises 17:47:55 0° 198° (SSW) 2,882 7.3 -9.9°
Reaches altitude 10° 17:50:10 10° 201° (SSW) 1,977 6.5 -10.3°
Maximum altitude 17:54:30 61° 283° (WNW) 698 4.1 -11.0°
Drops below altitude 10° 17:58:50 10° 4° (N) 1,976 6.1 -11.7°
Sets 18:01:05 0° 8° (N) 2,881 6.9 -12.0°
